Regional Weather Roundup
Issued by NWS Newport/Morehead, NC

Current Version | Previous Version | Graphics & Text | Print | Product List | Glossary Off
Versions: 1 2 3 4 5 6 7 8 9 10 11 12 13 14 15 16 17 18 19 20 21 22 23 24 25 26 27 28 29 30 31 32 33 34 35 36 37 38 39 40 41 42 43 44 45 46 47 48 49 50

000
ASUS42 KMHX 291310
RWRMHX
WEATHER ROUNDUP FOR EASTERN NORTH CAROLINA
NATIONAL WEATHER SERVICE NEWPORT/MOREHEAD CITY NC
900 AM EDT FRI AUG 29 2014

NOTE: "FAIR" INDICATES FEW OR NO CLOUDS BELOW 12,000 FEET
WITH NO SIGNIFICANT WEATHER AND/OR OBSTRUCTIONS TO VISIBILITY

NCZ015>017-031-032-045>047-102-103-291400-
NORTH COAST

CITY           SKY/WX    TMP DP  RH WIND       PRES   REMARKS
EDENTON        PTSUNNY   75  72  90 E6        30.11R
ELIZABETH CITY PTSUNNY   76  69  79 NE9       30.12R
KITTY HAWK     CLOUDY    75  70  84 E6        30.10R
MANTEO         CLOUDY    75  70  84 NE12      30.11R

$$

NCZ045>047-081-094-103-104-291400-
CENTRAL COAST

CITY           SKY/WX    TMP DP  RH WIND       PRES   REMARKS
FRISCO         NOT AVBL
SWANQUARTER      N/A     77 N/A N/A NE3       30.06S

$$

NCZ095-097-098-100-101-291400-
SOUTHERN COAST

CITY           SKY/WX    TMP DP  RH WIND       PRES   REMARKS
BEAUFORT       MOSUNNY   81  68  64 W7        30.10S
CEDAR ISLAND     N/A     81 N/A N/A W5G10     30.12S
JACKSONVILLE   MOSUNNY   76  69  79 W5        30.10R
NEWPORT        NOT AVBL
PINEY ISLAND   MOSUNNY   81  71  71 W7        30.09S
WILMINGTON     SUNNY     79  70  74 W6        30.10R


$$

NCZ011>013-027>030-043-044-078>080-089-090>093-098-291400-
COASTAL PLAIN

CITY           SKY/WX    TMP DP  RH WIND       PRES   REMARKS
AHOSKIE        PTSUNNY   70  68  95 CALM      30.13R
CLINTON        MOSUNNY   76  70  80 CALM      30.11
ELIZABETHTOWN  PTSUNNY   73  68  84 CALM      30.11R
GOLDSBORO      PTSUNNY   75  73  94 N5        30.09S
GREENVILLE     CLOUDY    77  72  83 NE7       30.12R
HAVELOCK       PTSUNNY   79  68  69 W8        30.11R
KENANSVILLE    MOSUNNY   73  68  83 CALM      30.12R
KINSTON        MOSUNNY   73  72  94 CALM      30.11R
NEW BERN       CLOUDY    78  69  73 SW3       30.11R
RICHLANDS      PTSUNNY   75  66  73 W3        30.11R
ROANOKE RAPIDS NOT AVBL
ROCKY MOUNT    SUNNY     76  69  79 NE7       30.12R
WASHINGTON     CLOUDY    73  71  93 N3        30.11R
WHITEVILLE     SUNNY     76  69  80 W3        30.10S

$$

AMZ130-135-150-152-154-156-158-170-250-252-270-ANZ085-086-088-633-658-670-291400-
MARINE OBSERVATIONS

STATION/POSITION TIME  TEMP    WIND        PRES    WAVE   SWELL
                       AIR SEA DIR/SP/G            HT/PER HT/PER
                 (UTC) (F)     (DEG/KT/KT) (MB)    (FT/S) (FT/S)
CHESAPEAKE LIGHT 1200   74      60/ 12/ 13 1020.9
BUOY 44014       1300   76 75   40/ 10/ 10 1019.7    4/ 9   3/ 9
DUCK             1300   76 78   50/ 16/ 17 1019.1
2E DUCK          1300                        N/A     3/11   2/11
OREGON INLET     1300   76 79   40/ 12/ 15 1019.2
BUOY 44095       1300      77                N/A     4/ 8   2/11
20E OREGON INLET NOT AVBL
HATTERAS CG      1300   80 80  290/  7/  7 1019.4
DIAMOND BUOY     1300   80     280/  6/  8 1019.0    4/10   3/10
CAPE LOOKOUT     1200   80     270/  9/ 11 1018.9
BEAUFORT LAB     1300   80 80  290/  5/  6 1018.8
30 SE NEW RIVER  1300   81 81  290/  6/  8 1019.6    3/ 8   3/ 8
5 SE WRIGHTSVILL 1300   75 81  300/ 10/ 12   N/A
BUOY 41002       1242   80 82   50/  4/  6 1020.0    4/ 8   3/ 8
BUOY 41004       1300   82 83  200/  4/  4 1018.2    3/ 9   3/ 9

$$



USA.gov is the U.S. government's official web portal to all federal, state and local government web resources and services.